status,avgMeasuredTime,avgSpeed,extID,medianMeasuredTime,TIMESTAMP,vehicleCount,_id,REPORT_ID
OK,97,42,1002,97,2014-08-01T08:00:00,3,20747057,204034
OK,119,34,1002,119,2014-08-01T08:10:00,0,20747879,204034
OK,94,44,1002,94,2014-08-01T08:15:00,2,20748328,204034
OK,82,50,1002,82,2014-08-01T08:20:00,3,20748777,204034
OK,63,65,1002,63,2014-08-01T08:25:00,2,20749226,204034
OK,63,65,1002,63,2014-08-01T08:30:00,1,20749675,204034
OK,63,65,1002,63,2014-08-01T08:35:00,0,20750124,204034
OK,63,65,1002,63,2014-08-01T08:40:00,0,20750573,204034
OK,63,65,1002,63,2014-08-01T08:45:00,0,20751022,204034
OK,73,56,1002,73,2014-08-01T08:50:00,1,20751471,204034
OK,92,45,1002,92,2014-08-01T09:00:00,4,20752369,204034
OK,105,39,1002,105,2014-08-01T09:05:00,4,20752818,204034
OK,126,32,1002,126,2014-08-01T09:10:00,2,20753267,204034
OK,102,40,1002,102,2014-08-01T09:20:00,3,20754165,204034
OK,128,32,1002,128,2014-08-01T09:25:00,1,20754614,204034
OK,118,35,1002,118,2014-08-01T09:30:00,2,20755063,204034
OK,107,38,1002,107,2014-08-01T09:35:00,3,20755512,204034
OK,64,64,1002,64,2014-08-01T09:40:00,3,20755961,204034
OK,99,41,1002,99,2014-08-01T09:45:00,3,20756410,204034
OK,132,31,1002,132,2014-08-01T09:50:00,2,20756859,204034
OK,122,34,1002,122,2014-08-01T09:55:00,1,20757308,204034
OK,86,48,1002,86,2014-08-01T10:00:00,2,20757757,204034
OK,86,48,1002,86,2014-08-01T10:05:00,2,20758206,204034
OK,101,41,1002,101,2014-08-01T10:15:00,1,20759104,204034
OK,101,41,1002,101,2014-08-01T10:20:00,1,20759553,204034
OK,79,52,1002,79,2014-08-01T10:25:00,2,20760002,204034
OK,96,43,1002,96,2014-08-01T10:30:00,3,20760451,204034
OK,136,30,1002,136,2014-08-01T10:35:00,3,20760900,204034
OK,78,53,1002,78,2014-08-01T10:40:00,5,20761349,204034
OK,90,46,1002,90,2014-08-01T10:45:00,5,20761798,204034
OK,110,37,1002,110,2014-08-01T10:50:00,3,20762247,204034
OK,87,47,1002,87,2014-08-01T11:00:00,3,20763145,204034
OK,77,53,1002,77,2014-08-01T11:10:00,3,20764043,204034
OK,108,38,1002,108,2014-08-01T11:20:00,1,20764940,204034
OK,111,37,1002,111,2014-08-01T11:25:00,2,20765389,204034
OK,115,36,1002,115,2014-08-01T11:30:00,1,20765838,204034
OK,115,36,1002,115,2014-08-01T11:35:00,0,20766287,204034
OK,73,56,1002,73,2014-08-01T11:40:00,1,20766736,204034
OK,100,41,1002,100,2014-08-01T11:45:00,2,20767185,204034
OK,128,32,1002,128,2014-08-01T11:50:00,1,20767634,204034
OK,53,78,1002,53,2014-08-01T11:55:00,1,20768083,204034
OK,60,69,1002,60,2014-08-01T12:00:00,2,20768532,204034
OK,188,22,1002,188,2014-08-01T12:10:00,1,20769430,204034
OK,235,17,1002,235,2014-08-01T12:15:00,1,20769879,204034
OK,95,43,1002,95,2014-08-01T12:20:00,1,20770328,204034
OK,108,38,1002,108,2014-08-01T12:25:00,2,20770777,204034
OK,121,34,1002,121,2014-08-01T12:30:00,1,20771226,204034
OK,121,34,1002,121,2014-08-01T12:35:00,0,20771675,204034
OK,121,34,1002,121,2014-08-01T12:40:00,0,20772124,204034
OK,74,56,1002,74,2014-08-01T12:45:00,1,20772573,204034
OK,74,56,1002,74,2014-08-01T12:50:00,1,20773022,204034
OK,139,29,1002,139,2014-08-01T12:55:00,5,20773471,204034
OK,140,29,1002,140,2014-08-01T13:00:00,5,20773920,204034
OK,117,35,1002,117,2014-08-01T13:05:00,2,20774369,204034
OK,95,43,1002,95,2014-08-01T13:10:00,1,20774818,204034
OK,89,46,1002,89,2014-08-01T13:15:00,1,20775267,204034
OK,114,36,1002,114,2014-08-01T13:20:00,2,20775716,204034
OK,139,29,1002,139,2014-08-01T13:25:00,1,20776165,204034
OK,135,30,1002,135,2014-08-01T13:30:00,1,20776614,204034
OK,104,39,1002,104,2014-08-01T13:35:00,2,20777063,204034
OK,73,56,1002,73,2014-08-01T13:40:00,1,20777512,204034
OK,73,56,1002,73,2014-08-01T13:45:00,0,20777961,204034
OK,97,42,1002,97,2014-08-01T13:50:00,2,20778410,204034
OK,88,47,1002,88,2014-08-01T14:00:00,1,20779308,204034
OK,164,25,1002,164,2014-08-01T14:05:00,1,20779757,204034
OK,165,25,1002,165,2014-08-01T14:10:00,2,20780206,204034
OK,126,32,1002,126,2014-08-01T14:15:00,2,20780655,204034
OK,88,47,1002,88,2014-08-01T14:20:00,3,20781104,204034
OK,93,44,1002,93,2014-08-01T14:25:00,3,20781553,204034
OK,138,30,1002,138,2014-08-01T14:30:00,1,20782002,204034
OK,138,30,1002,138,2014-08-01T14:35:00,0,20782451,204034
OK,85,48,1002,85,2014-08-01T14:40:00,1,20782900,204034
OK,85,48,1002,85,2014-08-01T14:45:00,1,20783349,204034
OK,85,48,1002,85,2014-08-01T14:50:00,0,20783798,204034
OK,115,36,1002,115,2014-08-01T15:00:00,2,20784696,204034
OK,185,22,1002,185,2014-08-01T15:05:00,1,20785145,204034
OK,185,22,1002,185,2014-08-01T15:10:00,0,20785594,204034
OK,185,22,1002,185,2014-08-01T15:15:00,0,20786043,204034
OK,118,35,1002,118,2014-08-01T15:20:00,1,20786492,204034
OK,112,37,1002,112,2014-08-01T15:25:00,4,20786941,204034
OK,145,28,1002,145,2014-08-01T15:30:00,6,20787390,204034
OK,148,28,1002,148,2014-08-01T15:35:00,5,20787839,204034
OK,107,38,1002,107,2014-08-01T15:40:00,3,20788288,204034
OK,90,46,1002,90,2014-08-01T15:45:00,1,20788737,204034
OK,128,32,1002,128,2014-08-01T15:50:00,1,20789186,204034
OK,128,32,1002,128,2014-08-01T15:55:00,1,20789635,204034
OK,103,40,1002,103,2014-08-01T16:00:00,1,20790084,204034
OK,89,46,1002,89,2014-08-01T16:05:00,2,20790533,204034
OK,75,55,1002,75,2014-08-01T16:10:00,1,20790982,204034
OK,79,52,1002,79,2014-08-01T16:15:00,3,20791431,204034
OK,88,47,1002,88,2014-08-01T16:20:00,4,20791880,204034
OK,115,36,1002,115,2014-08-01T16:25:00,2,20792329,204034
OK,90,46,1002,90,2014-08-01T16:30:00,1,20792778,204034
OK,90,46,1002,90,2014-08-01T16:35:00,0,20793227,204034
OK,97,42,1002,97,2014-08-01T16:40:00,2,20793676,204034
OK,127,32,1002,127,2014-08-01T16:45:00,4,20794125,204034
OK,155,26,1002,155,2014-08-01T16:50:00,2,20794574,204034
OK,87,47,1002,87,2014-08-01T16:55:00,1,20795023,204034
OK,88,47,1002,88,2014-08-01T17:00:00,2,20795472,204034
OK,111,37,1002,111,2014-08-01T17:05:00,1,20795921,204034
OK,111,37,1002,111,2014-08-01T17:10:00,0,20796370,204034
OK,111,37,1002,111,2014-08-01T17:15:00,0,20796819,204034
OK,111,37,1002,111,2014-08-01T17:20:00,0,20797268,204034
OK,163,25,1002,163,2014-08-01T17:25:00,1,20797717,204034
OK,163,25,1002,163,2014-08-01T17:30:00,1,20798166,204034
OK,163,25,1002,163,2014-08-01T17:35:00,0,20798615,204034
OK,96,43,1002,96,2014-08-01T17:40:00,1,20799064,204034
OK,96,43,1002,96,2014-08-01T17:45:00,1,20799513,204034
OK,65,63,1002,65,2014-08-01T17:50:00,1,20799962,204034
OK,65,63,1002,65,2014-08-01T17:55:00,1,20800411,204034
OK,67,62,1002,67,2014-08-01T18:00:00,2,20800860,204034
OK,64,64,1002,64,2014-08-01T18:05:00,4,20801309,204034
OK,59,70,1002,59,2014-08-01T18:10:00,2,20801758,204034
OK,100,41,1002,100,2014-08-01T18:15:00,1,20802207,204034
OK,100,41,1002,100,2014-08-01T18:20:00,1,20802656,204034
OK,100,41,1002,100,2014-08-01T18:25:00,0,20803105,204034
OK,100,41,1002,100,2014-08-01T18:30:00,0,20803554,204034
OK,100,41,1002,100,2014-08-01T18:35:00,0,20804003,204034
OK,73,56,1002,73,2014-08-01T18:40:00,1,20804452,204034
OK,79,52,1002,79,2014-08-01T18:45:00,2,20804901,204034
OK,85,48,1002,85,2014-08-01T18:50:00,1,20805350,204034
OK,85,48,1002,85,2014-08-01T18:55:00,0,20805799,204034
OK,96,43,1002,96,2014-08-01T19:00:00,1,20806248,204034
OK,96,43,1002,96,2014-08-01T19:05:00,1,20806697,204034
OK,96,43,1002,96,2014-08-01T19:10:00,0,20807146,204034
OK,92,45,1002,92,2014-08-01T19:15:00,1,20807595,204034
OK,92,45,1002,92,2014-08-01T19:20:00,1,20808044,204034
OK,92,45,1002,92,2014-08-01T19:25:00,0,20808493,204034
OK,57,72,1002,57,2014-08-01T19:30:00,1,20808942,204034
OK,57,72,1002,57,2014-08-01T19:35:00,1,20809391,204034
OK,57,72,1002,57,2014-08-01T19:40:00,0,20809840,204034
OK,57,72,1002,57,2014-08-01T19:45:00,0,20810289,204034
OK,57,72,1002,57,2014-08-01T19:50:00,0,20810738,204034
OK,57,72,1002,57,2014-08-01T19:55:00,0,20811187,204034
OK,57,72,1002,57,2014-08-01T22:00:00,0,20816916,204034
OK,57,72,1002,57,2014-08-02T00:00:00,0,20823355,204034
OK,57,72,1002,57,2014-08-02T00:05:00,0,20823804,204034
OK,57,72,1002,57,2014-08-02T00:10:00,0,20824253,204034
OK,57,72,1002,57,2014-08-02T00:15:00,0,20824702,204034
OK,57,72,1002,57,2014-08-02T00:20:00,0,20825151,204034
OK,57,72,1002,57,2014-08-02T00:25:00,0,20825600,204034
OK,57,72,1002,57,2014-08-02T00:30:00,0,20826049,204034
OK,57,72,1002,57,2014-08-02T00:35:00,0,20826498,204034
OK,57,72,1002,57,2014-08-02T00:40:00,0,20826947,204034
OK,57,72,1002,57,2014-08-02T00:45:00,0,20827396,204034
OK,57,72,1002,57,2014-08-02T00:50:00,0,20827845,204034
OK,57,72,1002,57,2014-08-02T00:55:00,0,20828294,204034
OK,57,72,1002,57,2014-08-02T01:00:00,0,20828743,204034
OK,57,72,1002,57,2014-08-02T01:05:00,0,20829192,204034
OK,57,72,1002,57,2014-08-02T01:10:00,0,20829641,204034
OK,57,72,1002,57,2014-08-02T01:15:00,0,20830090,204034
OK,57,72,1002,57,2014-08-02T01:20:00,0,20830539,204034
OK,57,72,1002,57,2014-08-02T01:25:00,0,20830988,204034
OK,57,72,1002,57,2014-08-02T01:30:00,0,20831437,204034
OK,57,72,1002,57,2014-08-02T01:35:00,0,20831886,204034
OK,57,72,1002,57,2014-08-02T01:40:00,0,20832335,204034
OK,57,72,1002,57,2014-08-02T01:45:00,0,20832784,204034
OK,57,72,1002,57,2014-08-02T01:50:00,0,20833233,204034
OK,57,72,1002,57,2014-08-02T01:55:00,0,20833682,204034
OK,57,72,1002,57,2014-08-02T02:00:00,0,20834131,204034
OK,57,72,1002,57,2014-08-02T02:05:00,0,20834580,204034
OK,57,72,1002,57,2014-08-02T02:10:00,0,20835029,204034
OK,57,72,1002,57,2014-08-02T02:15:00,0,20835478,204034
OK,57,72,1002,57,2014-08-02T02:20:00,0,20835927,204034
OK,57,72,1002,57,2014-08-02T02:25:00,0,20836376,204034
OK,57,72,1002,57,2014-08-02T02:30:00,0,20836825,204034
OK,57,72,1002,57,2014-08-02T02:35:00,0,20837274,204034
OK,57,72,1002,57,2014-08-02T02:40:00,0,20837723,204034
OK,57,72,1002,57,2014-08-02T02:45:00,0,20838172,204034
OK,57,72,1002,57,2014-08-02T02:50:00,0,20838621,204034
OK,57,72,1002,57,2014-08-02T02:55:00,0,20839070,204034
OK,57,72,1002,57,2014-08-02T03:00:00,0,20839519,204034
OK,57,72,1002,57,2014-08-02T03:05:00,0,20839968,204034
OK,57,72,1002,57,2014-08-02T03:10:00,0,20840417,204034
OK,57,72,1002,57,2014-08-02T03:15:00,0,20840866,204034
OK,57,72,1002,57,2014-08-02T03:20:00,0,20841315,204034
OK,57,72,1002,57,2014-08-02T03:25:00,0,20841764,204034
OK,57,72,1002,57,2014-08-02T03:30:00,0,20842213,204034
OK,57,72,1002,57,2014-08-02T03:35:00,0,20842662,204034
OK,57,72,1002,57,2014-08-02T03:40:00,0,20843111,204034
OK,57,72,1002,57,2014-08-02T03:45:00,0,20843560,204034
OK,57,72,1002,57,2014-08-02T03:50:00,0,20844009,204034
OK,57,72,1002,57,2014-08-02T03:55:00,0,20844458,204034
OK,57,72,1002,57,2014-08-02T06:00:00,0,20851912,204034
OK,57,72,1002,57,2014-08-02T06:05:00,0,20852361,204034
OK,57,72,1002,57,2014-08-02T06:10:00,0,20852810,204034
OK,57,72,1002,57,2014-08-02T06:15:00,0,20853259,204034
OK,57,72,1002,57,2014-08-02T06:20:00,0,20853708,204034
OK,57,72,1002,57,2014-08-02T06:25:00,0,20854157,204034
OK,57,72,1002,57,2014-08-02T06:30:00,0,20854606,204034
OK,57,72,1002,57,2014-08-02T06:35:00,0,20855055,204034
OK,57,72,1002,57,2014-08-02T06:40:00,0,20855504,204034
OK,57,72,1002,57,2014-08-02T06:45:00,0,20855953,204034
OK,57,72,1002,57,2014-08-02T06:50:00,0,20856402,204034
OK,650,6,1002,650,2014-08-02T06:55:00,2,20856851,204034
OK,650,6,1002,650,2014-08-02T07:00:00,2,20857300,204034
OK,509,8,1002,509,2014-08-02T07:05:00,0,20857749,204034
OK,70,59,1002,70,2014-08-02T07:10:00,2,20858198,204034
OK,73,56,1002,73,2014-08-02T07:15:00,1,20858647,204034
OK,73,56,1002,73,2014-08-02T07:20:00,0,20859096,204034
OK,59,70,1002,59,2014-08-02T07:25:00,1,20859545,204034
OK,59,70,1002,59,2014-08-02T07:30:00,1,20859994,204034
OK,59,70,1002,59,2014-08-02T07:35:00,0,20860443,204034
OK,93,44,1002,93,2014-08-02T07:40:00,1,20860892,204034
OK,93,44,1002,93,2014-08-02T07:45:00,1,20861341,204034
OK,154,26,1002,154,2014-08-02T07:50:00,1,20861790,204034
OK,154,26,1002,154,2014-08-02T07:55:00,1,20862239,204034
OK,59,70,1002,59,2014-08-02T08:00:00,1,20862688,204034
OK,107,38,1002,107,2014-08-02T08:05:00,3,20863137,204034
OK,143,29,1002,143,2014-08-02T08:10:00,2,20863586,204034
OK,129,32,1002,129,2014-08-02T08:15:00,2,20864035,204034
OK,126,32,1002,126,2014-08-02T08:20:00,4,20864484,204034
OK,126,32,1002,126,2014-08-02T08:25:00,3,20864933,204034
OK,129,32,1002,129,2014-08-02T08:30:00,0,20865382,204034
OK,78,53,1002,78,2014-08-02T08:35:00,1,20865831,204034
OK,84,49,1002,84,2014-08-02T08:40:00,2,20866280,204034
OK,154,26,1002,154,2014-08-02T08:45:00,3,20866729,204034
OK,166,25,1002,166,2014-08-02T08:50:00,1,20867178,204034
OK,110,37,1002,110,2014-08-02T08:55:00,1,20867627,204034
OK,110,37,1002,110,2014-08-02T09:00:00,0,20868076,204034
OK,125,33,1002,125,2014-08-02T09:05:00,2,20868525,204034
OK,119,34,1002,119,2014-08-02T09:10:00,3,20868974,204034
OK,101,41,1002,101,2014-08-02T09:15:00,2,20869423,204034
OK,64,64,1002,64,2014-08-02T09:20:00,0,20869872,204034
OK,64,64,1002,64,2014-08-02T09:25:00,0,20870321,204034
OK,64,64,1002,64,2014-08-02T09:30:00,0,20870770,204034
OK,64,64,1002,64,2014-08-02T09:35:00,0,20871219,204034
OK,64,64,1002,64,2014-08-02T09:40:00,0,20871668,204034
OK,104,39,1002,104,2014-08-02T09:45:00,1,20872117,204034
OK,104,39,1002,104,2014-08-02T09:50:00,1,20872566,204034
OK,104,39,1002,104,2014-08-02T09:55:00,0,20873015,204034
OK,224,18,1002,224,2014-08-02T10:00:00,1,20873464,204034
OK,174,23,1002,174,2014-08-02T10:05:00,2,20873913,204034
OK,92,45,1002,92,2014-08-02T10:10:00,2,20874362,204034
OK,82,50,1002,82,2014-08-02T10:15:00,2,20874811,204034
OK,110,37,1002,110,2014-08-02T10:20:00,3,20875260,204034
OK,112,37,1002,112,2014-08-02T10:25:00,2,20875709,204034
OK,100,41,1002,100,2014-08-02T10:30:00,2,20876158,204034
OK,86,48,1002,86,2014-08-02T10:35:00,4,20876607,204034
OK,103,40,1002,103,2014-08-02T10:40:00,5,20877056,204034
OK,128,32,1002,128,2014-08-02T10:45:00,3,20877505,204034
OK,124,33,1002,124,2014-08-02T10:50:00,2,20877954,204034
OK,157,26,1002,157,2014-08-02T10:55:00,2,20878403,204034
OK,203,20,1002,203,2014-08-02T11:00:00,1,20878852,204034
OK,89,46,1002,89,2014-08-02T11:05:00,1,20879301,204034
OK,102,40,1002,102,2014-08-02T11:10:00,2,20879750,204034
OK,115,36,1002,115,2014-08-02T11:15:00,1,20880199,204034
OK,115,36,1002,115,2014-08-02T11:20:00,0,20880648,204034
OK,98,42,1002,98,2014-08-02T11:25:00,1,20881097,204034
OK,98,42,1002,98,2014-08-02T11:30:00,1,20881546,204034
OK,98,42,1002,98,2014-08-02T11:35:00,0,20881995,204034
OK,98,42,1002,98,2014-08-02T11:40:00,0,20882444,204034
OK,98,42,1002,98,2014-08-02T11:45:00,0,20882893,204034
OK,98,42,1002,98,2014-08-02T11:50:00,0,20883342,204034
OK,80,51,1002,80,2014-08-02T11:55:00,2,20883791,204034
OK,80,51,1002,80,2014-08-02T12:00:00,2,20884240,204034
OK,126,32,1002,126,2014-08-02T12:05:00,4,20884689,204034
OK,126,32,1002,126,2014-08-02T12:10:00,4,20885138,204034
OK,84,49,1002,84,2014-08-02T12:15:00,1,20885587,204034
OK,88,47,1002,88,2014-08-02T12:20:00,4,20886036,204034
OK,119,34,1002,119,2014-08-02T12:25:00,5,20886485,204034
OK,119,34,1002,119,2014-08-02T12:30:00,5,20886934,204034
OK,94,44,1002,94,2014-08-02T12:35:00,3,20887383,204034
OK,94,44,1002,94,2014-08-02T12:40:00,0,20887832,204034
OK,124,33,1002,124,2014-08-02T12:45:00,2,20888281,204034
OK,124,33,1002,124,2014-08-02T12:50:00,2,20888730,204034
OK,132,31,1002,132,2014-08-02T12:55:00,3,20889179,204034
OK,136,30,1002,136,2014-08-02T13:00:00,4,20889628,204034
OK,165,25,1002,165,2014-08-02T13:05:00,1,20890077,204034
OK,165,25,1002,165,2014-08-02T13:10:00,1,20890526,204034
OK,165,25,1002,165,2014-08-02T13:15:00,0,20890975,204034
OK,134,31,1002,134,2014-08-02T13:20:00,2,20891424,204034
OK,134,31,1002,134,2014-08-02T13:25:00,2,20891873,204034
OK,138,30,1002,138,2014-08-02T13:30:00,0,20892322,204034
OK,138,30,1002,138,2014-08-02T13:35:00,0,20892771,204034
OK,101,41,1002,101,2014-08-02T13:40:00,1,20893220,204034
OK,145,28,1002,145,2014-08-02T13:45:00,4,20893669,204034
OK,169,24,1002,169,2014-08-02T13:50:00,3,20894118,204034
OK,109,38,1002,109,2014-08-02T13:55:00,1,20894567,204034
OK,92,45,1002,92,2014-08-02T14:00:00,2,20895016,204034
OK,75,55,1002,75,2014-08-02T14:05:00,1,20895465,204034
OK,96,43,1002,96,2014-08-02T14:10:00,3,20895914,204034
OK,113,36,1002,113,2014-08-02T14:15:00,6,20896363,204034
OK,121,34,1002,121,2014-08-02T14:20:00,4,20896812,204034
OK,105,39,1002,105,2014-08-02T14:25:00,4,20897261,204034
OK,100,41,1002,100,2014-08-02T14:30:00,2,20897710,204034
OK,96,43,1002,96,2014-08-02T14:35:00,0,20898159,204034
OK,95,43,1002,95,2014-08-02T14:40:00,3,20898608,204034
OK,95,43,1002,95,2014-08-02T14:45:00,3,20899057,204034
OK,95,43,1002,95,2014-08-02T14:50:00,1,20899506,204034
OK,91,45,1002,91,2014-08-02T14:55:00,2,20899955,204034
OK,143,29,1002,143,2014-08-02T15:00:00,2,20900404,204034
OK,198,20,1002,198,2014-08-02T15:05:00,1,20900853,204034
OK,198,20,1002,198,2014-08-02T15:10:00,0,20901302,204034
OK,99,41,1002,99,2014-08-02T15:15:00,1,20901751,204034
OK,99,41,1002,99,2014-08-02T15:20:00,1,20902200,204034
OK,133,31,1002,133,2014-08-02T15:25:00,3,20902649,204034
OK,133,31,1002,133,2014-08-02T15:30:00,8,20903098,204034
OK,133,31,1002,133,2014-08-02T15:35:00,5,20903547,204034
OK,111,37,1002,111,2014-08-02T15:40:00,1,20903996,204034
OK,111,37,1002,111,2014-08-02T15:45:00,1,20904445,204034
OK,111,37,1002,111,2014-08-02T15:50:00,0,20904894,204034
OK,102,40,1002,102,2014-08-02T15:55:00,1,20905343,204034
OK,77,53,1002,77,2014-08-02T16:00:00,2,20905792,204034
OK,71,58,1002,71,2014-08-02T16:05:00,2,20906241,204034
OK,102,40,1002,102,2014-08-02T16:10:00,4,20906690,204034
OK,103,40,1002,103,2014-08-02T16:15:00,3,20907139,204034
OK,103,40,1002,103,2014-08-02T16:20:00,0,20907588,204034
OK,125,33,1002,125,2014-08-02T16:25:00,3,20908037,204034
OK,125,33,1002,125,2014-08-02T16:30:00,3,20908486,204034
OK,77,53,1002,77,2014-08-02T16:35:00,1,20908935,204034
OK,77,53,1002,77,2014-08-02T16:40:00,1,20909384,204034
OK,77,53,1002,77,2014-08-02T16:45:00,0,20909833,204034
OK,248,16,1002,248,2014-08-02T16:50:00,1,20910282,204034
OK,278,14,1002,278,2014-08-02T16:55:00,1,20910731,204034
OK,99,41,1002,99,2014-08-02T17:00:00,1,20911180,204034
OK,99,41,1002,99,2014-08-02T17:05:00,0,20911629,204034
OK,69,60,1002,69,2014-08-02T17:10:00,1,20912078,204034
OK,69,60,1002,69,2014-08-02T17:15:00,1,20912527,204034
OK,69,60,1002,69,2014-08-02T17:20:00,0,20912976,204034
OK,69,60,1002,69,2014-08-02T17:25:00,0,20913425,204034
OK,69,60,1002,69,2014-08-02T17:30:00,0,20913874,204034
OK,79,52,1002,79,2014-08-02T17:35:00,1,20914323,204034
OK,60,69,1002,60,2014-08-02T17:40:00,1,20914772,204034
OK,82,50,1002,82,2014-08-02T17:45:00,4,20915221,204034
OK,85,48,1002,85,2014-08-02T17:50:00,3,20915670,204034
OK,102,40,1002,102,2014-08-02T17:55:00,1,20916119,204034
OK,121,34,1002,121,2014-08-02T18:00:00,4,20916568,204034
OK,140,29,1002,140,2014-08-02T18:05:00,3,20917017,204034
OK,140,29,1002,140,2014-08-02T18:10:00,0,20917466,204034
OK,79,52,1002,79,2014-08-02T18:15:00,1,20917915,204034
OK,79,52,1002,79,2014-08-02T18:20:00,1,20918364,204034
OK,95,43,1002,95,2014-08-02T18:25:00,3,20918813,204034
OK,95,43,1002,95,2014-08-02T18:30:00,3,20919262,204034
OK,55,75,1002,55,2014-08-02T18:35:00,0,20919711,204034
OK,55,75,1002,55,2014-08-02T18:40:00,0,20920160,204034
OK,90,46,1002,90,2014-08-02T18:45:00,1,20920609,204034
OK,90,46,1002,90,2014-08-02T18:50:00,0,20921058,204034
OK,61,68,1002,61,2014-08-02T18:55:00,1,20921507,204034
OK,63,65,1002,63,2014-08-02T19:00:00,2,20921956,204034
OK,66,62,1002,66,2014-08-02T19:05:00,1,20922405,204034
OK,66,62,1002,66,2014-08-02T19:10:00,0,20922854,204034
OK,66,62,1002,66,2014-08-02T19:15:00,0,20923303,204034
OK,66,62,1002,66,2014-08-02T19:20:00,0,20923752,204034
OK,66,62,1002,66,2014-08-02T19:25:00,1,20924201,204034
OK,66,62,1002,66,2014-08-02T19:30:00,0,20924650,204034
OK,66,62,1002,66,2014-08-02T19:35:00,0,20925099,204034
OK,66,62,1002,66,2014-08-02T19:40:00,0,20925548,204034
OK,66,62,1002,66,2014-08-02T19:45:00,0,20925997,204034
OK,66,62,1002,66,2014-08-02T19:50:00,0,20926446,204034
OK,123,33,1002,123,2014-08-02T19:55:00,1,20926895,204034
OK,123,33,1002,123,2014-08-02T20:00:00,1,20927344,204034
OK,123,33,1002,123,2014-08-02T20:05:00,0,20927793,204034
OK,63,65,1002,63,2014-08-02T20:10:00,1,20928242,204034
OK,63,65,1002,63,2014-08-02T20:15:00,1,20928691,204034
OK,63,65,1002,63,2014-08-02T20:20:00,0,20929140,204034
OK,63,65,1002,63,2014-08-02T20:25:00,0,20929589,204034
OK,63,65,1002,63,2014-08-02T20:30:00,0,20930038,204034
OK,63,65,1002,63,2014-08-02T20:35:00,0,20930487,204034
OK,63,65,1002,63,2014-08-02T20:40:00,0,20930936,204034
OK,63,65,1002,63,2014-08-02T20:45:00,0,20931385,204034
OK,63,65,1002,63,2014-08-02T20:50:00,0,20931834,204034
OK,63,65,1002,63,2014-08-02T20:55:00,0,20932283,204034
OK,63,65,1002,63,2014-08-02T21:00:00,0,20932732,204034
OK,63,65,1002,63,2014-08-02T21:05:00,0,20933181,204034
OK,63,65,1002,63,2014-08-02T21:10:00,0,20933630,204034
OK,63,65,1002,63,2014-08-02T21:15:00,0,20934079,204034
OK,63,65,1002,63,2014-08-02T21:20:00,0,20934528,204034
OK,63,65,1002,63,2014-08-02T21:25:00,0,20934977,204034
OK,63,65,1002,63,2014-08-02T21:30:00,0,20935426,204034
OK,63,65,1002,63,2014-08-02T21:35:00,0,20935875,204034
OK,63,65,1002,63,2014-08-02T21:40:00,0,20936324,204034
OK,63,65,1002,63,2014-08-02T21:45:00,0,20936773,204034
OK,63,65,1002,63,2014-08-02T21:50:00,0,20937222,204034
OK,35,118,1002,35,2014-08-02T21:55:00,1,20937671,204034
OK,35,118,1002,35,2014-08-02T22:00:00,0,20938120,204034
OK,35,118,1002,35,2014-08-02T22:05:00,0,20938569,204034
OK,35,118,1002,35,2014-08-02T22:10:00,0,20939018,204034
OK,35,118,1002,35,2014-08-02T22:15:00,0,20939467,204034
OK,35,118,1002,35,2014-08-02T22:20:00,0,20939916,204034
OK,35,118,1002,35,2014-08-02T22:25:00,0,20940365,204034
OK,35,118,1002,35,2014-08-02T22:30:00,0,20940814,204034
OK,35,118,1002,35,2014-08-02T22:35:00,0,20941263,204034
OK,71,58,1002,71,2014-08-02T22:40:00,1,20941712,204034
OK,71,58,1002,71,2014-08-02T22:45:00,1,20942161,204034
OK,49,84,1002,49,2014-08-02T22:50:00,1,20942610,204034
OK,49,84,1002,49,2014-08-02T22:55:00,1,20943059,204034
OK,49,84,1002,49,2014-08-02T23:00:00,0,20943508,204034
OK,49,84,1002,49,2014-08-02T23:10:00,0,20943957,204034
OK,49,84,1002,49,2014-08-02T23:15:00,0,20944406,204034
OK,63,65,1002,63,2014-08-02T23:20:00,1,20944855,204034
OK,62,67,1002,62,2014-08-02T23:25:00,1,20945304,204034
OK,62,67,1002,62,2014-08-02T23:30:00,0,20945753,204034
OK,62,67,1002,62,2014-08-02T23:35:00,0,20946202,204034
OK,62,67,1002,62,2014-08-02T23:40:00,0,20946651,204034
OK,62,67,1002,62,2014-08-02T23:45:00,0,20947100,204034
OK,62,67,1002,62,2014-08-02T23:50:00,0,20947549,204034
OK,62,67,1002,62,2014-08-02T23:55:00,0,20947998,204034
OK,77,53,1002,77,2014-08-03T00:00:00,1,20948447,204034
OK,77,53,1002,77,2014-08-03T00:05:00,1,20948896,204034
OK,77,53,1002,77,2014-08-03T00:10:00,0,20949344,204034
OK,77,53,1002,77,2014-08-03T00:15:00,0,20949793,204034
OK,77,53,1002,77,2014-08-03T00:20:00,0,20950242,204034
OK,77,53,1002,77,2014-08-03T00:25:00,0,20950691,204034
OK,77,53,1002,77,2014-08-03T00:30:00,0,20951140,204034
OK,54,76,1002,54,2014-08-03T00:35:00,1,20951589,204034
OK,54,76,1002,54,2014-08-03T00:40:00,1,20952038,204034
OK,54,76,1002,54,2014-08-03T00:45:00,0,20952487,204034
OK,54,76,1002,54,2014-08-03T00:50:00,0,20952936,204034
OK,91,45,1002,91,2014-08-03T00:55:00,2,20953385,204034
OK,91,45,1002,91,2014-08-03T01:00:00,2,20953834,204034
OK,91,45,1002,91,2014-08-03T01:05:00,0,20954283,204034
OK,91,45,1002,91,2014-08-03T01:10:00,0,20954732,204034
OK,91,45,1002,91,2014-08-03T01:15:00,0,20955181,204034
OK,91,45,1002,91,2014-08-03T01:20:00,0,20955630,204034
OK,57,72,1002,57,2014-08-03T01:25:00,1,20956079,204034
OK,57,72,1002,57,2014-08-03T01:30:00,1,20956528,204034
OK,57,72,1002,57,2014-08-03T01:35:00,0,20956977,204034
OK,57,72,1002,57,2014-08-03T01:40:00,0,20957426,204034
OK,57,72,1002,57,2014-08-03T01:45:00,0,20957875,204034
OK,57,72,1002,57,2014-08-03T01:50:00,0,20958324,204034